| time (UTC) | temp F | wind direction | speed MPH | gust MPH | rain 1hr in | rain 24hr in | rain mn in | humidity % | barometer mb |
| 20260502130543 | 43 | 0 | 0.0 | 0.0 | 0.00 | 0.00 | 0.00 | 69 | 1022.5 |
| 20260502130105 | 42 | 0 | 0.0 | 0.0 | 0.00 | 0.00 | 0.00 | 74 | 1022.5 |
| 20260502123542 | 40 | 263 | 0.0 | 3.0 | 0.00 | 0.00 | 0.00 | 76 | 1022.3 |
| 20260502123058 | 39 | 0 | 0.0 | 3.0 | 0.00 | 0.00 | 0.00 | 77 | 1022.2 |
| 20260502122542 | 39 | 0 | 0.0 | 2.0 | 0.00 | 0.00 | 0.00 | 77 | 1022.1 |
| 20260502122043 | 38 | 0 | 0.0 | 2.0 | 0.00 | 0.00 | 0.00 | 77 | 1022.1 |
| 20260502121551 | 38 | 0 | 0.0 | 2.0 | 0.00 | 0.00 | 0.00 | 78 | 1022.1 |
| 20260502121043 | 38 | 0 | 0.0 | 1.0 | 0.00 | 0.00 | 0.00 | 79 | 1022.0 |
| 20260502120543 | 37 | 293 | 0.0 | 1.0 | 0.00 | 0.00 | 0.00 | 80 | 1021.9 |
| 20260502115545 | 36 | 0 | 0.0 | 1.0 | 0.00 | 0.00 | 0.00 | 81 | 1021.8 |
| 20260502115045 | 36 | 0 | 0.0 | 0.0 | 0.00 | 0.00 | 0.00 | 81 | 1021.8 |
| 20260502114555 | 36 | 0 | 0.0 | 0.0 | 0.00 | 0.00 | 0.00 | 81 | 1021.6 |
| 20260502114043 | 36 | 0 | 0.0 | 0.0 | 0.00 | 0.00 | 0.00 | 81 | 1021.6 |
| 20260502113547 | 36 | 0 | 0.0 | 0.0 | 0.00 | 0.00 | 0.00 | 81 | 1021.6 |
| 20260502113056 | 36 | 0 | 0.0 | 0.0 | 0.00 | 0.00 | 0.00 | 81 | 1021.5 |
| 20260502112542 | 36 | 0 | 0.0 | 0.0 | 0.00 | 0.00 | 0.00 | 80 | 1021.5 |
| 20260502112042 | 36 | 0 | 0.0 | 0.0 | 0.00 | 0.00 | 0.00 | 80 | 1021.5 |
| 20260502111549 | 37 | 0 | 0.0 | 0.0 | 0.00 | 0.00 | 0.00 | 80 | 1021.5 |
| 20260502111043 | 36 | 0 | 0.0 | 0.0 | 0.00 | 0.00 | 0.00 | 79 | 1021.5 |
| 20260502110541 | 37 | 0 | 0.0 | 0.0 | 0.00 | 0.00 | 0.00 | 79 | 1021.4 |
| 20260502110051 | 37 | 0 | 0.0 | 0.0 | 0.00 | 0.00 | 0.00 | 79 | 1021.4 |
| 20260502105545 | 37 | 0 | 0.0 | 0.0 | 0.00 | 0.00 | 0.00 | 79 | 1021.4 |
| 20260502105040 | 37 | 0 | 0.0 | 0.0 | 0.00 | 0.00 | 0.00 | 79 | 1021.5 |
| 20260502104552 | 37 | 0 | 0.0 | 0.0 | 0.00 | 0.00 | 0.00 | 78 | 1021.3 |
| 20260502104043 | 37 | 0 | 0.0 | 0.0 | 0.00 | 0.00 | 0.00 | 78 | 1021.3 |
| 20260502103544 | 37 | 0 | 0.0 | 0.0 | 0.00 | 0.00 | 0.00 | 77 | 1021.3 |
| 20260502103048 | 37 | 0 | 0.0 | 0.0 | 0.00 | 0.00 | 0.00 | 77 | 1021.4 |
| 20260502102544 | 38 | 0 | 0.0 | 0.0 | 0.00 | 0.00 | 0.00 | 77 | 1021.3 |
| 20260502102043 | 38 | 0 | 0.0 | 0.0 | 0.00 | 0.00 | 0.00 | 77 | 1021.2 |
| 20260502101551 | 38 | 0 | 0.0 | 0.0 | 0.00 | 0.00 | 0.00 | 76 | 1021.2 |
| 20260502101043 | 38 | 0 | 0.0 | 0.0 | 0.00 | 0.00 | 0.00 | 75 | 1021.1 |
| 20260502100543 | 38 | 0 | 0.0 | 0.0 | 0.00 | 0.00 | 0.00 | 75 | 1021.1 |
| 20260502091040 | 40 | 0 | 0.0 | 0.0 | 0.00 | 0.00 | 0.00 | 70 | 1021.1 |
| 20260502090543 | 40 | 0 | 0.0 | 0.0 | 0.00 | 0.00 | 0.00 | 69 | 1020.9 |
| 20260502071040 | 44 | 0 | 0.0 | 0.0 | 0.00 | 0.00 | 0.00 | 59 | 1020.7 |
| 20260502070543 | 43 | 0 | 0.0 | 0.0 | 0.00 | 0.00 | 0.00 | 60 | 1020.8 |
| 20260502070056 | 43 | 0 | 0.0 | 0.0 | 0.00 | 0.00 | 0.00 | 60 | 1020.7 |
| 20260502065540 | 44 | 0 | 0.0 | 0.0 | 0.00 | 0.00 | 0.00 | 60 | 1020.7 |
| 20260502065040 | 44 | 0 | 0.0 | 0.0 | 0.00 | 0.00 | 0.00 | 59 | 1020.8 |
| 20260502064551 | 44 | 0 | 0.0 | 0.0 | 0.00 | 0.00 | 0.00 | 58 | 1020.8 |
| 20260502064043 | 44 | 0 | 0.0 | 0.0 | 0.00 | 0.00 | 0.00 | 58 | 1021.0 |
| 20260502063543 | 45 | 0 | 0.0 | 0.0 | 0.00 | 0.00 | 0.00 | 58 | 1020.8 |
| 20260502063048 | 45 | 0 | 0.0 | 0.0 | 0.00 | 0.00 | 0.00 | 57 | 1020.8 |
| 20260502062539 | 44 | 0 | 0.0 | 0.0 | 0.00 | 0.00 | 0.00 | 58 | 1020.8 |
| 20260502062039 | 44 | 0 | 0.0 | 0.0 | 0.00 | 0.00 | 0.00 | 58 | 1020.7 |
| 20260502061550 | 44 | 0 | 0.0 | 0.0 | 0.00 | 0.00 | 0.00 | 59 | 1020.7 |
| 20260502061042 | 44 | 0 | 0.0 | 0.0 | 0.00 | 0.00 | 0.00 | 59 | 1020.7 |
| 20260502060543 | 45 | 0 | 0.0 | 0.0 | 0.00 | 0.00 | 0.00 | 58 | 1020.7 |
| 20260502060100 | 45 | 0 | 0.0 | 0.0 | 0.00 | 0.00 | 0.00 | 57 | 1020.6 |
| 20260502055544 | 45 | 0 | 0.0 | 0.0 | 0.00 | 0.00 | 0.00 | 56 | 1020.8 |
| 20260502055043 | 46 | 0 | 0.0 | 0.0 | 0.00 | 0.00 | 0.00 | 54 | 1020.7 |
| 20260502054553 | 47 | 0 | 0.0 | 0.0 | 0.00 | 0.00 | 0.00 | 53 | 1020.6 |
| 20260502054042 | 47 | 0 | 0.0 | 0.0 | 0.00 | 0.00 | 0.00 | 51 | 1020.6 |
| 20260502053540 | 48 | 0 | 0.0 | 0.0 | 0.00 | 0.00 | 0.00 | 50 | 1020.4 |
| 20260502053050 | 48 | 0 | 0.0 | 2.0 | 0.00 | 0.00 | 0.00 | 49 | 1020.6 |
| 20260502052543 | 49 | 0 | 0.0 | 2.0 | 0.00 | 0.00 | 0.00 | 48 | 1020.6 |
| 20260502052043 | 49 | 0 | 0.0 | 5.0 | 0.00 | 0.00 | 0.00 | 48 | 1020.6 |
| 20260502051551 | 50 | 0 | 0.0 | 5.0 | 0.00 | 0.00 | 0.00 | 47 | 1020.6 |
| 20260502051043 | 50 | 0 | 0.0 | 3.0 | 0.00 | 0.00 | 0.00 | 46 | 1020.5 |
| 20260502050540 | 50 | 0 | 0.0 | 3.0 | 0.00 | 0.00 | 0.00 | 46 | 1020.5 |
| 20260502050051 | 50 | 0 | 0.0 | 3.0 | 0.00 | 0.00 | 0.00 | 47 | 1020.5 |
| 20260502045542 | 49 | 0 | 0.0 | 2.0 | 0.00 | 0.00 | 0.00 | 49 | 1020.4 |
| 20260502045044 | 49 | 0 | 0.0 | 0.0 | 0.00 | 0.00 | 0.00 | 48 | 1020.4 |
| 20260502044553 | 49 | 0 | 0.0 | 2.0 | 0.00 | 0.00 | 0.00 | 48 | 1020.3 |
| 20260502044039 | 50 | 0 | 0.0 | 2.0 | 0.00 | 0.00 | 0.00 | 48 | 1020.3 |
| 20260502043542 | 49 | 0 | 0.0 | 2.0 | 0.00 | 0.00 | 0.00 | 48 | 1020.3 |
| 20260502043055 | 50 | 0 | 0.0 | 1.0 | 0.00 | 0.00 | 0.00 | 49 | 1020.3 |
| 20260502042544 | 50 | 0 | 0.0 | 0.0 | 0.00 | 0.00 | 0.00 | 48 | 1020.3 |
| 20260502042041 | 50 | 0 | 0.0 | 2.0 | 0.00 | 0.00 | 0.00 | 48 | 1020.2 |
| 20260502041553 | 51 | 0 | 0.0 | 2.0 | 0.00 | 0.00 | 0.00 | 47 | 1020.2 |
| 20260502041040 | 51 | 0 | 0.0 | 3.0 | 0.00 | 0.00 | 0.00 | 48 | 1020.2 |
| 20260502040540 | 51 | 0 | 0.0 | 3.0 | 0.00 | 0.00 | 0.00 | 47 | 1020.3 |
| 20260502040054 | 51 | 0 | 0.0 | 3.0 | 0.00 | 0.00 | 0.00 | 47 | 1020.2 |
| 20260502035542 | 51 | 0 | 0.0 | 2.0 | 0.00 | 0.00 | 0.00 | 47 | 1020.2 |
| 20260502035040 | 52 | 0 | 0.0 | 2.0 | 0.00 | 0.00 | 0.00 | 47 | 1020.2 |
| 20260502034548 | 52 | 0 | 0.0 | 4.0 | 0.00 | 0.00 | 0.00 | 47 | 1020.3 |
| 20260502034043 | 52 | 0 | 0.0 | 4.0 | 0.00 | 0.00 | 0.00 | 48 | 1020.1 |
| 20260502033542 | 52 | 0 | 0.0 | 4.0 | 0.00 | 0.00 | 0.00 | 47 | 1020.1 |
| 20260502033052 | 53 | 0 | 0.0 | 2.0 | 0.00 | 0.00 | 0.00 | 47 | 1020.1 |
| 20260502032545 | 53 | 0 | 0.0 | 2.0 | 0.00 | 0.00 | 0.00 | 48 | 1020.1 |
| 20260502032043 | 53 | 0 | 0.0 | 1.0 | 0.00 | 0.00 | 0.00 | 48 | 1019.9 |
| 20260502031550 | 53 | 0 | 0.0 | 4.0 | 0.00 | 0.00 | 0.00 | 48 | 1019.9 |
| 20260502031043 | 53 | 0 | 0.0 | 4.0 | 0.00 | 0.00 | 0.00 | 47 | 1019.7 |
| 20260502030541 | 54 | 0 | 0.0 | 2.0 | 0.00 | 0.00 | 0.00 | 48 | 1019.7 |
| 20260502030054 | 53 | 0 | 0.0 | 2.0 | 0.00 | 0.00 | 0.00 | 49 | 1019.7 |
| 20260502025540 | 53 | 63 | 0.0 | 2.0 | 0.00 | 0.00 | 0.00 | 51 | 1019.6 |
| 20260502025040 | 53 | 0 | 0.0 | 2.0 | 0.00 | 0.00 | 0.00 | 53 | 1019.5 |
| 20260502024549 | 53 | 0 | 0.0 | 2.0 | 0.00 | 0.00 | 0.00 | 54 | 1019.4 |
| 20260502024040 | 54 | 0 | 0.0 | 0.0 | 0.00 | 0.00 | 0.00 | 53 | 1019.3 |
| 20260502023543 | 54 | 0 | 0.0 | 1.0 | 0.00 | 0.00 | 0.00 | 53 | 1019.2 |
| 20260502023048 | 54 | 0 | 0.0 | 1.0 | 0.00 | 0.00 | 0.00 | 52 | 1019.1 |
| 20260502022540 | 54 | 0 | 0.0 | 1.0 | 0.00 | 0.00 | 0.00 | 52 | 1018.9 |
| 20260502022041 | 54 | 0 | 0.0 | 1.0 | 0.00 | 0.00 | 0.00 | 52 | 1018.8 |
| 20260502021550 | 54 | 0 | 0.0 | 1.0 | 0.00 | 0.00 | 0.00 | 51 | 1018.7 |
| 20260502021047 | 55 | 0 | 0.0 | 0.0 | 0.00 | 0.00 | 0.00 | 51 | 1018.6 |
| 20260502020540 | 55 | 0 | 0.0 | 0.0 | 0.00 | 0.00 | 0.00 | 51 | 1018.5 |
| 20260502020048 | 54 | 0 | 0.0 | 0.0 | 0.00 | 0.00 | 0.00 | 51 | 1018.4 |
| 20260502015543 | 54 | 0 | 0.0 | 0.0 | 0.00 | 0.00 | 0.00 | 51 | 1018.3 |
| 20260502015043 | 55 | 0 | 0.0 | 0.0 | 0.00 | 0.00 | 0.00 | 50 | 1018.2 |
| 20260502014556 | 55 | 0 | 0.0 | 0.0 | 0.00 | 0.00 | 0.00 | 49 | 1018.2 |
| 20260502014040 | 56 | 0 | 0.0 | 1.0 | 0.00 | 0.00 | 0.00 | 48 | 1018.1 |
| 20260502013540 | 56 | 0 | 0.0 | 1.0 | 0.00 | 0.00 | 0.00 | 46 | 1018.1 |
| 20260502013054 | 57 | 0 | 0.0 | 0.0 | 0.00 | 0.00 | 0.00 | 46 | 1018.0 |
| 20260502012540 | 57 | 0 | 0.0 | 1.0 | 0.00 | 0.00 | 0.00 | 44 | 1018.0 |
| 20260502012040 | 58 | 0 | 0.0 | 1.0 | 0.00 | 0.00 | 0.00 | 44 | 1018.1 |
| 20260502011549 | 58 | 0 | 0.0 | 1.0 | 0.00 | 0.00 | 0.00 | 43 | 1018.0 |
| 20260502011039 | 58 | 0 | 0.0 | 2.0 | 0.00 | 0.00 | 0.00 | 42 | 1017.9 |
| 20260502010541 | 59 | 0 | 0.0 | 2.0 | 0.00 | 0.00 | 0.00 | 41 | 1017.9 |
| 20260502010058 | 59 | 355 | 0.0 | 3.0 | 0.00 | 0.00 | 0.00 | 41 | 1017.9 |
| 20260502005541 | 60 | 0 | 0.0 | 3.0 | 0.00 | 0.00 | 0.00 | 41 | 1017.8 |
| 20260502005043 | 60 | 281 | 0.0 | 3.0 | 0.00 | 0.00 | 0.00 | 40 | 1017.8 |
| 20260502004551 | 60 | 0 | 0.0 | 2.0 | 0.00 | 0.00 | 0.00 | 40 | 1017.7 |
| 20260502004046 | 61 | 0 | 0.0 | 4.0 | 0.00 | 0.00 | 0.00 | 38 | 1017.6 |
| 20260502003543 | 61 | 0 | 0.0 | 4.0 | 0.00 | 0.00 | 0.00 | 38 | 1017.5 |
| 20260502003049 | 61 | 338 | 0.0 | 5.0 | 0.00 | 0.00 | 0.00 | 37 | 1017.5 |
| 20260502002544 | 62 | 5 | 1.0 | 8.0 | 0.00 | 0.00 | 0.00 | 37 | 1017.5 |
| 20260502002044 | 62 | 350 | 1.0 | 8.0 | 0.00 | 0.00 | 0.00 | 36 | 1017.5 |
| 20260502001549 | 62 | 5 | 1.0 | 10.0 | 0.00 | 0.00 | 0.00 | 35 | 1017.3 |
| 20260502001045 | 62 | 349 | 2.0 | 10.0 | 0.00 | 0.00 | 0.00 | 34 | 1017.3 |
| 20260502000544 | 62 | 348 | 0.0 | 7.0 | 0.00 | 0.00 | 0.00 | 33 | 1017.3 |
| 20260502000105 | 63 | 349 | 1.0 | 7.0 | 0.00 | 0.00 | 0.00 | 35 | 1017.2 |
| 20260501235544 | 63 | 294 | 1.0 | 7.0 | 0.00 | 0.00 | 0.00 | 34 | 1017.2 |
| 20260501235044 | 63 | 263 | 1.0 | 9.0 | 0.00 | 0.00 | 0.00 | 35 | 1017.2 |
| 20260501234551 | 63 | 306 | 2.0 | 11.0 | 0.00 | 0.00 | 0.00 | 34 | 1017.1 |
| 20260501234044 | 63 | 5 | 2.0 | 11.0 | 0.00 | 0.00 | 0.00 | 33 | 1017.1 |
| 20260501233549 | 63 | 306 | 2.0 | 11.0 | 0.00 | 0.00 | 0.00 | 34 | 1017.2 |
| 20260501233053 | 63 | 300 | 1.0 | 5.0 | 0.00 | 0.00 | 0.00 | 34 | 1017.1 |
| 20260501232546 | 63 | 348 | 0.0 | 13.0 | 0.00 | 0.00 | 0.00 | 34 | 1017.1 |
| 20260501232048 | 63 | 352 | 1.0 | 13.0 | 0.00 | 0.00 | 0.00 | 34 | 1017.1 |
| 20260501231552 | 63 | 0 | 2.0 | 11.0 | 0.00 | 0.00 | 0.00 | 34 | 1017.1 |
| 20260501231044 | 63 | 317 | 1.0 | 7.0 | 0.00 | 0.00 | 0.00 | 34 | 1017.1 |
| 20260501230545 | 64 | 355 | 1.0 | 4.0 | 0.00 | 0.00 | 0.00 | 33 | 1017.1 |
| 20260501230052 | 64 | 326 | 0.0 | 8.0 | 0.00 | 0.00 | 0.00 | 33 | 1017.0 |
| 20260501225547 | 64 | 0 | 1.0 | 8.0 | 0.00 | 0.00 | 0.00 | 32 | 1017.0 |
| 20260501225045 | 65 | 0 | 2.0 | 8.0 | 0.00 | 0.00 | 0.00 | 31 | 1016.9 |
| 20260501224553 | 66 | 327 | 0.0 | 9.0 | 0.00 | 0.00 | 0.00 | 34 | 1017.1 |
| 20260501224045 | 65 | 234 | 2.0 | 9.0 | 0.00 | 0.00 | 0.00 | 33 | 1017.1 |
| 20260501223545 | 64 | 293 | 1.0 | 9.0 | 0.00 | 0.00 | 0.00 | 33 | 1017.1 |
| 20260501223050 | 64 | 352 | 2.0 | 9.0 | 0.00 | 0.00 | 0.00 | 33 | 1017.1 |
| 20260501222544 | 65 | 0 | 1.0 | 8.0 | 0.00 | 0.00 | 0.00 | 34 | 1017.1 |
| 20260501222044 | 65 | 348 | 1.0 | 8.0 | 0.00 | 0.00 | 0.00 | 35 | 1017.2 |
| 20260501221551 | 64 | 17 | 0.0 | 6.0 | 0.00 | 0.00 | 0.00 | 39 | 1017.2 |
| 20260501221044 | 64 | 5 | 0.0 | 8.0 | 0.00 | 0.00 | 0.00 | 36 | 1017.2 |
| 20260501220546 | 65 | 329 | 0.0 | 11.0 | 0.00 | 0.00 | 0.00 | 34 | 1017.2 |
| 20260501220100 | 65 | 336 | 1.0 | 11.0 | 0.00 | 0.00 | 0.00 | 35 | 1017.2 |
| 20260501215545 | 66 | 0 | 1.0 | 11.0 | 0.00 | 0.00 | 0.00 | 35 | 1017.1 |
| 20260501215044 | 67 | 0 | 1.0 | 11.0 | 0.00 | 0.00 | 0.00 | 35 | 1017.1 |
| 20260501214554 | 66 | 44 | 0.0 | 11.0 | 0.00 | 0.00 | 0.00 | 34 | 1017.1 |
| 20260501214045 | 67 | 24 | 1.0 | 10.0 | 0.00 | 0.00 | 0.00 | 33 | 1017.2 |
| 20260501213544 | 67 | 257 | 2.0 | 10.0 | 0.00 | 0.00 | 0.00 | 34 | 1017.3 |
| 20260501213057 | 67 | 321 | 3.0 | 9.0 | 0.00 | 0.00 | 0.00 | 34 | 1017.4 |
| 20260501212544 | 67 | 321 | 1.0 | 8.0 | 0.00 | 0.00 | 0.00 | 37 | 1017.5 |
| 20260501212044 | 66 | 340 | 1.0 | 8.0 | 0.00 | 0.00 | 0.00 | 36 | 1017.5 |
| 20260501211551 | 65 | 49 | 1.0 | 10.0 | 0.00 | 0.00 | 0.00 | 37 | 1017.6 |
| 20260501211044 | 64 | 327 | 1.0 | 10.0 | 0.00 | 0.00 | 0.00 | 37 | 1017.8 |
| 20260501210544 | 64 | 269 | 4.0 | 10.0 | 0.00 | 0.00 | 0.00 | 37 | 1017.9 |
| 20260501210054 | 65 | 282 | 1.0 | 11.0 | 0.00 | 0.00 | 0.00 | 38 | 1018.0 |
| 20260501205544 | 65 | 352 | 3.0 | 11.0 | 0.00 | 0.00 | 0.00 | 36 | 1018.0 |
| 20260501205044 | 65 | 9 | 4.0 | 11.0 | 0.00 | 0.00 | 0.00 | 35 | 1018.1 |
| 20260501204553 | 65 | 0 | 1.0 | 11.0 | 0.00 | 0.00 | 0.00 | 39 | 1018.1 |
| 20260501204046 | 65 | 355 | 1.0 | 11.0 | 0.00 | 0.00 | 0.00 | 36 | 1018.1 |
| 20260501203543 | 67 | 318 | 1.0 | 7.0 | 0.00 | 0.00 | 0.00 | 33 | 1018.2 |
| 20260501203057 | 67 | 0 | 1.0 | 12.0 | 0.00 | 0.00 | 0.00 | 36 | 1018.2 |
| 20260501202547 | 68 | 327 | 2.0 | 12.0 | 0.00 | 0.00 | 0.00 | 36 | 1018.2 |
| 20260501202044 | 68 | 312 | 2.0 | 10.0 | 0.00 | 0.00 | 0.00 | 37 | 1018.3 |
| 20260501201609 | 68 | 324 | 2.0 | 9.0 | 0.00 | 0.00 | 0.00 | 35 | 1018.3 |
| 20260501201045 | 67 | 148 | 0.0 | 9.0 | 0.00 | 0.00 | 0.00 | 40 | 1018.3 |
| 20260501200543 | 65 | 24 | 1.0 | 11.0 | 0.00 | 0.00 | 0.00 | 37 | 1018.6 |
| 20260501200054 | 65 | 310 | 1.0 | 11.0 | 0.00 | 0.00 | 0.00 | 37 | 1018.6 |
| 20260501195544 | 65 | 331 | 2.0 | 12.0 | 0.00 | 0.00 | 0.00 | 35 | 1018.6 |
| 20260501195043 | 66 | 316 | 1.0 | 12.0 | 0.00 | 0.00 | 0.00 | 36 | 1018.7 |
| 20260501194551 | 64 | 302 | 2.0 | 12.0 | 0.00 | 0.00 | 0.00 | 37 | 1018.7 |
| 20260501194044 | 64 | 0 | 2.0 | 11.0 | 0.00 | 0.00 | 0.00 | 38 | 1018.7 |
| 20260501193542 | 65 | 332 | 1.0 | 9.0 | 0.00 | 0.00 | 0.00 | 37 | 1018.7 |
| 20260501193050 | 65 | 280 | 1.0 | 8.0 | 0.00 | 0.00 | 0.00 | 35 | 1018.6 |
| 20260501192544 | 65 | 340 | 1.0 | 12.0 | 0.00 | 0.00 | 0.00 | 35 | 1018.7 |
| 20260501192043 | 65 | 332 | 2.0 | 12.0 | 0.00 | 0.00 | 0.00 | 33 | 1018.7 |
| 20260501191559 | 66 | 311 | 3.0 | 12.0 | 0.00 | 0.00 | 0.00 | 35 | 1018.6 |
| 20260501191047 | 66 | 284 | 1.0 | 10.0 | 0.00 | 0.00 | 0.00 | 37 | 1018.7 |
| 20260501190544 | 65 | 0 | 1.0 | 10.0 | 0.00 | 0.00 | 0.00 | 38 | 1018.7 |
| 20260501190053 | 67 | 311 | 3.0 | 10.0 | 0.00 | 0.00 | 0.00 | 34 | 1018.7 |
| 20260501185543 | 67 | 198 | 2.0 | 13.0 | 0.00 | 0.00 | 0.00 | 39 | 1018.7 |
| 20260501185045 | 64 | 334 | 3.0 | 13.0 | 0.00 | 0.00 | 0.00 | 37 | 1018.7 |
| 20260501184603 | 64 | 62 | 1.0 | 9.0 | 0.00 | 0.00 | 0.00 | 35 | 1018.7 |
| 20260501184046 | 65 | 277 | 0.0 | 10.0 | 0.00 | 0.00 | 0.00 | 35 | 1018.8 |
| 20260501183545 | 65 | 261 | 1.0 | 10.0 | 0.00 | 0.00 | 0.00 | 40 | 1018.8 |
| 20260501183054 | 67 | 344 | 2.0 | 11.0 | 0.00 | 0.00 | 0.00 | 37 | 1018.9 |
| 20260501182545 | 67 | 0 | 1.0 | 11.0 | 0.00 | 0.00 | 0.00 | 37 | 1019.0 |
| 20260501182045 | 67 | 283 | 3.0 | 16.0 | 0.00 | 0.00 | 0.00 | 35 | 1019.1 |
| 20260501181600 | 67 | 316 | 4.0 | 16.0 | 0.00 | 0.00 | 0.00 | 33 | 1019.2 |
| 20260501181040 | 67 | 311 | 1.0 | 6.0 | 0.00 | 0.00 | 0.00 | 40 | 1019.1 |
| 20260501180540 | 66 | 0 | 1.0 | 8.0 | 0.00 | 0.00 | 0.00 | 32 | 1019.1 |
| 20260501180055 | 67 | 337 | 1.0 | 9.0 | 0.00 | 0.00 | 0.00 | 34 | 1019.2 |
| 20260501175540 | 67 | 298 | 2.0 | 11.0 | 0.00 | 0.00 | 0.00 | 32 | 1019.3 |
| 20260501175039 | 66 | 16 | 2.0 | 11.0 | 0.00 | 0.00 | 0.00 | 32 | 1019.3 |
| 20260501174550 | 66 | 250 | 1.0 | 10.0 | 0.00 | 0.00 | 0.00 | 35 | 1019.4 |
| 20260501174040 | 66 | 21 | 3.0 | 8.0 | 0.00 | 0.00 | 0.00 | 34 | 1019.4 |
| 20260501173540 | 65 | 0 | 2.0 | 10.0 | 0.00 | 0.00 | 0.00 | 37 | 1019.5 |
| 20260501173050 | 65 | 324 | 0.0 | 10.0 | 0.00 | 0.00 | 0.00 | 34 | 1019.4 |
| 20260501172541 | 66 | 340 | 2.0 | 8.0 | 0.00 | 0.00 | 0.00 | 33 | 1019.6 |
| 20260501172040 | 65 | 0 | 1.0 | 6.0 | 0.00 | 0.00 | 0.00 | 36 | 1019.5 |
| 20260501171555 | 65 | 310 | 1.0 | 5.0 | 0.00 | 0.00 | 0.00 | 35 | 1019.6 |
| 20260501171040 | 64 | 329 | 1.0 | 4.0 | 0.00 | 0.00 | 0.00 | 36 | 1019.6 |
| 20260501170544 | 64 | 227 | 0.0 | 5.0 | 0.00 | 0.00 | 0.00 | 33 | 1019.6 |
| 20260501170055 | 63 | 355 | 1.0 | 8.0 | 0.00 | 0.00 | 0.00 | 32 | 1019.6 |
| 20260501165540 | 64 | 14 | 2.0 | 8.0 | 0.00 | 0.00 | 0.00 | 31 | 1019.7 |
| 20260501165041 | 64 | 12 | 1.0 | 6.0 | 0.00 | 0.00 | 0.00 | 38 | 1019.7 |
| 20260501164550 | 65 | 311 | 2.0 | 6.0 | 0.00 | 0.00 | 0.00 | 36 | 1019.7 |
| 20260501164044 | 63 | 337 | 1.0 | 8.0 | 0.00 | 0.00 | 0.00 | 36 | 1019.7 |
| 20260501163541 | 63 | 306 | 1.0 | 8.0 | 0.00 | 0.00 | 0.00 | 38 | 1019.7 |
| 20260501163053 | 63 | 184 | 3.0 | 8.0 | 0.00 | 0.00 | 0.00 | 36 | 1019.7 |
| 20260501162540 | 63 | 142 | 1.0 | 5.0 | 0.00 | 0.00 | 0.00 | 36 | 1019.7 |
| 20260501162040 | 62 | 212 | 2.0 | 5.0 | 0.00 | 0.00 | 0.00 | 39 | 1019.8 |
| 20260501161554 | 61 | 306 | 2.0 | 8.0 | 0.00 | 0.00 | 0.00 | 37 | 1019.7 |
| 20260501161044 | 62 | 288 | 2.0 | 10.0 | 0.00 | 0.00 | 0.00 | 40 | 1019.8 |
| 20260501160540 | 62 | 0 | 2.0 | 10.0 | 0.00 | 0.00 | 0.00 | 39 | 1019.7 |
| 20260501160053 | 62 | 0 | 3.0 | 9.0 | 0.00 | 0.00 | 0.00 | 39 | 1019.7 |
| 20260501155542 | 62 | 198 | 2.0 | 9.0 | 0.00 | 0.00 | 0.00 | 40 | 1019.8 |
| 20260501155040 | 62 | 186 | 2.0 | 9.0 | 0.00 | 0.00 | 0.00 | 40 | 1019.8 |
| 20260501154556 | 62 | 257 | 3.0 | 9.0 | 0.00 | 0.00 | 0.00 | 40 | 1019.8 |
| 20260501154040 | 61 | 254 | 3.0 | 9.0 | 0.00 | 0.00 | 0.00 | 40 | 1019.8 |
| 20260501153540 | 60 | 299 | 2.0 | 7.0 | 0.00 | 0.00 | 0.00 | 41 | 1019.7 |
| 20260501153054 | 60 | 228 | 2.0 | 6.0 | 0.00 | 0.00 | 0.00 | 40 | 1019.8 |
| 20260501152539 | 60 | 309 | 2.0 | 6.0 | 0.00 | 0.00 | 0.00 | 39 | 1019.8 |
| 20260501152039 | 59 | 325 | 2.0 | 5.0 | 0.00 | 0.00 | 0.00 | 40 | 1019.8 |
| 20260501151601 | 60 | 209 | 2.0 | 5.0 | 0.00 | 0.00 | 0.00 | 41 | 1019.8 |
| 20260501151040 | 59 | 302 | 2.0 | 9.0 | 0.00 | 0.00 | 0.00 | 41 | 1019.8 |
| 20260501150544 | 59 | 238 | 3.0 | 9.0 | 0.00 | 0.00 | 0.00 | 39 | 1019.7 |
| 20260501150049 | 59 | 180 | 2.0 | 8.0 | 0.00 | 0.00 | 0.00 | 44 | 1019.8 |
| 20260501145541 | 60 | 254 | 1.0 | 5.0 | 0.00 | 0.00 | 0.00 | 44 | 1019.6 |
| 20260501145041 | 58 | 255 | 2.0 | 5.0 | 0.00 | 0.00 | 0.00 | 48 | 1019.8 |
| 20260501144553 | 58 | 239 | 0.0 | 5.0 | 0.00 | 0.00 | 0.00 | 51 | 1019.8 |
| 20260501144041 | 57 | 198 | 1.0 | 5.0 | 0.00 | 0.00 | 0.00 | 51 | 1019.7 |
| 20260501143540 | 57 | 134 | 1.0 | 5.0 | 0.00 | 0.00 | 0.00 | 54 | 1019.6 |
| 20260501143048 | 56 | 178 | 1.0 | 7.0 | 0.00 | 0.00 | 0.00 | 52 | 1019.5 |
| 20260501142541 | 55 | 199 | 2.0 | 7.0 | 0.00 | 0.00 | 0.00 | 53 | 1019.5 |